When you browse on this site, cookies collect data to enhance your experience and personalize the content and advertising you see.
Visit our Privacy Policy to learn more. By continuing to use the site, you agree to this use of cookies and data.
  • In Austria
  • List of Countries
  • For 7 days
  • Water Temperature
  • Satellite Maps
  • Weather Map
  • News
  • Weather Widgets
  • user-avatar
    Login

    Hourly Weather Castelo Branco

    Today, 23 March, Saturday

    Time Temperature Precipitation Wind Pressure Humidity
    00:00 +9°C° 0 mm 1 mps 736 mmHg 59%
    01:00 +9°C° 0 mm 1 mps 736 mmHg 61%
    02:00 +8°C° 0 mm 2 mps 736 mmHg 64%
    03:00 +8°C° 0 mm 2 mps 735 mmHg 66%
    04:00 +7°C° 0 mm 2 mps 735 mmHg 65%
    05:00 +7°C° 0 mm 2 mps 735 mmHg 65%
    06:00 +7°C° 0 mm 2 mps 735 mmHg 64%
    07:00 +9°C° 0 mm 2 mps 735 mmHg 60%
    08:00 +11°C° 0 mm 3 mps 735 mmHg 56%
    09:00 +12°C° 0 mm 4 mps 736 mmHg 52%
    10:00 +14°C° 0 mm 4 mps 735 mmHg 48%
    11:00 +16°C° 0 mm 5 mps 735 mmHg 45%
    12:00 +19°C° 0 mm 5 mps 735 mmHg 41%
    13:00 +20°C° 0 mm 5 mps 735 mmHg 40%
    14:00 +20°C° 0 mm 5 mps 734 mmHg 38%
    15:00 +21°C° 0 mm 5 mps 733 mmHg 37%
    16:00 +20°C° 0 mm 4 mps 733 mmHg 43%
    17:00 +19°C° 0 mm 3 mps 733 mmHg 48%
    18:00 +18°C° 0 mm 2 mps 733 mmHg 54%
    19:00 +16°C° 0 mm 2 mps 733 mmHg 54%
    20:00 +15°C° 0 mm 2 mps 733 mmHg 54%
    21:00 +12°C° 0 mm 3 mps 733 mmHg 54%
    22:00 +12°C° 0 mm 3 mps 734 mmHg 55%
    23:00 +11°C° 0 mm 3 mps 734 mmHg 56%

    Tomorrow, 24 March, Sunday

    Time Temperature Precipitation Wind Pressure Humidity
    00:00 +11°C° 0 mm 3 mps 734 mmHg 56%
    01:00 +10°C° 0 mm 3 mps 733 mmHg 59%
    02:00 +10°C° 0 mm 3 mps 733 mmHg 62%
    03:00 +9°C° 0 mm 2 mps 733 mmHg 64%
    04:00 +9°C° 0 mm 2 mps 733 mmHg 66%
    05:00 +9°C° 0 mm 2 mps 733 mmHg 68%
    06:00 +8°C° 0 mm 2 mps 733 mmHg 70%
    07:00 +10°C° 0 mm 3 mps 733 mmHg 64%
    08:00 +12°C° 0 mm 4 mps 734 mmHg 57%
    09:00 +14°C° 0 mm 4 mps 734 mmHg 50%
    10:00 +16°C° 0 mm 5 mps 734 mmHg 46%
    11:00 +17°C° 0 mm 5 mps 734 mmHg 42%
    12:00 +20°C° 0 mm 6 mps 734 mmHg 37%
    13:00 +21°C° 0 mm 5 mps 733 mmHg 36%
    14:00 +21°C° 0 mm 5 mps 733 mmHg 34%
    15:00 +22°C° 0 mm 5 mps 732 mmHg 33%
    16:00 +20°C° 0 mm 4 mps 732 mmHg 38%
    17:00 +19°C° 0 mm 3 mps 732 mmHg 43%
    18:00 +18°C° 0 mm 2 mps 732 mmHg 48%
    19:00 +17°C° 0 mm 2 mps 732 mmHg 48%
    20:00 +15°C° 0 mm 2 mps 732 mmHg 48%
    21:00 +14°C° 0 mm 2 mps 733 mmHg 48%
    22:00 +13°C° 0 mm 2 mps 733 mmHg 49%
    23:00 +13°C° 0 mm 2 mps 733 mmHg 50%

    Day after tomorrow, 25 March, Monday

    Time Temperature Precipitation Wind Pressure Humidity
    00:00 +12°C° 0 mm 2 mps 733 mmHg 51%
    01:00 +12°C° 0 mm 2 mps 732 mmHg 52%
    02:00 +10°C° 0 mm 2 mps 732 mmHg 53%
    03:00 +10°C° 0 mm 2 mps 732 mmHg 54%
    04:00 +9°C° 0 mm 2 mps 732 mmHg 55%
    05:00 +9°C° 0 mm 2 mps 732 mmHg 57%
    06:00 +8°C° 0 mm 2 mps 732 mmHg 58%
    07:00 +10°C° 0 mm 2 mps 732 mmHg 54%
    08:00 +12°C° 0 mm 3 mps 733 mmHg 51%
    09:00 +14°C° 0 mm 3 mps 733 mmHg 48%
    10:00 +17°C° 0 mm 4 mps 733 mmHg 43%
    11:00 +19°C° 0 mm 4 mps 733 mmHg 38%
    12:00 +20°C° 0 mm 5 mps 732 mmHg 33%
    13:00 +21°C° 0 mm 4 mps 732 mmHg 32%
    14:00 +22°C° 0 mm 4 mps 731 mmHg 31%
    15:00 +22°C° 0 mm 4 mps 730 mmHg 29%
    16:00 +21°C° 0 mm 3 mps 730 mmHg 35%
    17:00 +20°C° 0 mm 2 mps 729 mmHg 41%
    18:00 +19°C° 0 mm 2 mps 729 mmHg 47%
    19:00 +17°C° 0 mm 2 mps 729 mmHg 48%
    20:00 +15°C° 0 mm 2 mps 729 mmHg 49%
    21:00 +14°C° 0 mm 2 mps 730 mmHg 50%
    22:00 +13°C° 0 mm 2 mps 730 mmHg 52%
    23:00 +13°C° 0 mm 2 mps 730 mmHg 55%

    26 March, Tuesday

    Time Temperature Precipitation Wind Pressure Humidity
    00:00 +12°C° 0 mm 2 mps 730 mmHg 57%
    01:00 +11°C° 0 mm 3 mps 730 mmHg 57%
    02:00 +11°C° 0 mm 3 mps 729 mmHg 57%
    03:00 +11°C° 0 mm 3 mps 729 mmHg 56%
    04:00 +11°C° 0 mm 3 mps 729 mmHg 58%
    05:00 +10°C° 0 mm 3 mps 729 mmHg 60%
    06:00 +10°C° 0 mm 3 mps 729 mmHg 62%
    07:00 +11°C° 0 mm 4 mps 729 mmHg 57%
    08:00 +13°C° 0 mm 5 mps 729 mmHg 53%
    09:00 +14°C° 0 mm 5 mps 729 mmHg 48%
    10:00 +16°C° 0 mm 6 mps 729 mmHg 44%
    11:00 +19°C° 0 mm 6 mps 729 mmHg 40%
    12:00 +21°C° 0 mm 7 mps 729 mmHg 37%
    13:00 +22°C° 0 mm 7 mps 728 mmHg 36%
    14:00 +23°C° 0 mm 7 mps 728 mmHg 35%
    15:00 +23°C° 0 mm 7 mps 727 mmHg 35%
    16:00 +22°C° 0 mm 6 mps 727 mmHg 38%
    17:00 +21°C° 0 mm 5 mps 727 mmHg 42%
    18:00 +20°C° 0 mm 5 mps 727 mmHg 46%
    19:00 +19°C° 0 mm 5 mps 727 mmHg 47%
    20:00 +17°C° 0 mm 5 mps 728 mmHg 48%
    21:00 +16°C° 0 mm 6 mps 728 mmHg 49%
    22:00 +16°C° 0 mm 6 mps 729 mmHg 48%
    23:00 +15°C° 0 mm 6 mps 729 mmHg 48%

    27 March, Wednesday

    Time Temperature Precipitation Wind Pressure Humidity
    00:00 +14°C° 0 mm 6 mps 729 mmHg 48%
    01:00 +13°C° 0.1 mm 5 mps 730 mmHg 52%
    02:00 +12°C° 0.1 mm 5 mps 730 mmHg 56%
    03:00 +12°C° 0.1 mm 5 mps 730 mmHg 61%
    04:00 +10°C° 0 mm 5 mps 730 mmHg 60%
    05:00 +11°C° 0 mm 4 mps 730 mmHg 59%
    06:00 +11°C° 0 mm 4 mps 730 mmHg 59%
    07:00 +10°C° 0 mm 5 mps 730 mmHg 58%
    08:00 +11°C° 0 mm 6 mps 731 mmHg 58%
    09:00 +11°C° 0 mm 7 mps 731 mmHg 58%
    10:00 +14°C° 0 mm 7 mps 731 mmHg 54%
    11:00 +15°C° 0 mm 7 mps 732 mmHg 50%
    12:00 +16°C° 0 mm 8 mps 732 mmHg 47%
    13:00 +16°C° 0 mm 8 mps 731 mmHg 47%
    14:00 +16°C° 0 mm 7 mps 731 mmHg 47%
    15:00 +16°C° 0 mm 7 mps 731 mmHg 47%
    16:00 +15°C° 0 mm 6 mps 731 mmHg 50%
    17:00 +15°C° 0 mm 6 mps 731 mmHg 53%
    18:00 +14°C° 0 mm 5 mps 731 mmHg 56%
    19:00 +13°C° 0 mm 5 mps 731 mmHg 58%
    20:00 +12°C° 0 mm 5 mps 732 mmHg 60%
    21:00 +12°C° 0 mm 4 mps 732 mmHg 62%
    22:00 +11°C° 0 mm 4 mps 732 mmHg 64%
    23:00 +11°C° 0 mm 4 mps 732 mmHg 66%

    28 March, Thursday

    Time Temperature Precipitation Wind Pressure Humidity
    00:00 +10°C° 0 mm 4 mps 732 mmHg 67%
    01:00 +10°C° 0 mm 3 mps 732 mmHg 67%
    02:00 +9°C° 0 mm 3 mps 732 mmHg 67%
    03:00 +9°C° 0 mm 3 mps 732 mmHg 67%
    04:00 +9°C° 0 mm 3 mps 732 mmHg 68%
    05:00 +8°C° 0 mm 3 mps 732 mmHg 69%
    06:00 +8°C° 0 mm 3 mps 732 mmHg 70%
    07:00 +9°C° 0 mm 3 mps 733 mmHg 67%
    08:00 +10°C° 0 mm 4 mps 733 mmHg 65%
    09:00 +12°C° 0 mm 4 mps 734 mmHg 62%
    10:00 +13°C° 0 mm 4 mps 734 mmHg 59%
    11:00 +15°C° 0 mm 4 mps 734 mmHg 57%
    12:00 +17°C° 0 mm 4 mps 734 mmHg 54%
    13:00 +18°C° 0 mm 4 mps 734 mmHg 53%
    14:00 +19°C° 0 mm 4 mps 733 mmHg 53%
    15:00 +20°C° 0 mm 4 mps 733 mmHg 52%
    16:00 +19°C° 0 mm 4 mps 733 mmHg 56%
    17:00 +18°C° 0 mm 4 mps 733 mmHg 59%
    18:00 +17°C° 0 mm 4 mps 733 mmHg 63%
    19:00 +14°C° 0 mm 3 mps 733 mmHg 67%
    20:00 +13°C° 0 mm 3 mps 734 mmHg 72%
    21:00 +12°C° 0 mm 2 mps 734 mmHg 76%
    22:00 +10°C° 0 mm 2 mps 734 mmHg 77%
    23:00 +10°C° 0 mm 2 mps 734 mmHg 78%
    Show more